[[{"header":{"parameterUnit":"m.s-1","parameterCategory":1,"la1":30.2991,"la2":30.254,"lo1":-89.0895,"lo2":-89.0444,"dy":0.0017,"dx":0.0017,"nx":28,"ny":28,"refTime":"2025-03-12T09:00:00:Z","depth":0,"parameterNumber":2,"parameterNumberName":"U-component_of_WINDS"},"data":[0,0,0,0,0,0,0,0,0,0,0,0,0,0,0,0,0,0,0,0,0,0,0,0,0,0,0,0,0,0,0,0,0,0,0,0,0,0,0,0,0,0,0,0,0,0,0,0,0,0,0,0,0,0,0,0,0,0,-0.7623,-0.7623,0,-0.758,-0.758,-0.7579,-0.7599,-0.76,-0.7601,-0.7602,-0.7554,-0.7552,-0.755,0,0,0,0,0,0,0,0,0,0,0,0,0,-0.7719,-0.7717,-0.7623,-0.7623,-0.7622,-0.758,-0.758,-0.7579,-0.7599,-0.76,-0.7602,-0.7603,-0.7555,-0.7553,-0.755,0,0,0,0,0,0,0,0,0,0,0,0,0,-0.7677,-0.7716,-0.7624,-0.7627,-0.7627,-0.7581,-0.758,-0.7579,-0.7599,-0.76,-0.7602,-0.7604,-0.7556,-0.7553,-0.7549,-0.7495,0,0,-0.7539,-0.7537,0,0,0,0,0,0,0,0,-0.7679,-0.7673,-0.7627,-0.7627,-0.7627,-0.7597,-0.7596,-0.7551,-0.7598,-0.7609,-0.7602,-0.7604,-0.7567,-0.7563,-0.7551,-0.7493,-0.7491,-0.7539,-0.7536,-0.7535,-0.7534,0,0,0,0,0,0,0,-0.7682,-0.7675,-0.7606,-0.7627,-0.7626,-0.763,-0.7626,-0.7587,-0.7579,-0.7609,-0.761,-0.7605,-0.7567,-0.7554,-0.755,-0.749,-0.7539,-0.7536,-0.7533,-0.7532,-0.7384,-0.7382,0,0,0,0,0,0,-0.7685,-0.7677,-0.7608,-0.7605,-0.7658,-0.7627,-0.7622,-0.7605,-0.758,-0.7578,-0.7603,-0.7606,-0.7559,-0.7554,-0.7548,-0.7481,-0.7535,-0.7532,-0.753,-0.7385,-0.7383,-0.7381,0,0,0,0,0,0,-0.7687,-0.7679,-0.7609,-0.7642,-0.7633,-0.7623,-0.7604,-0.7603,-0.759,-0.7576,-0.7574,-0.7592,-0.756,-0.7553,-0.7508,-0.748,-0.753,-0.7527,-0.7388,-0.7385,-0.7382,-0.7348,0,0,0,0,0,0,-0.769,-0.7679,-0.766,-0.7641,-0.7631,-0.7571,-0.7602,-0.7601,-0.7585,-0.7587,-0.7565,-0.7563,-0.7561,-0.7513,-0.7505,-0.7476,-0.7524,-0.739,-0.7386,-0.7383,-0.7351,-0.7344,-0.7338,0,0,0,0,0,-0.7693,-0.7652,-0.7659,-0.765,-0.7607,-0.7569,-0.7564,-0.7564,-0.7582,-0.7562,-0.7552,-0.7563,-0.7485,-0.7508,-0.7499,-0.7469,-0.7392,-0.7387,-0.7383,-0.7354,-0.7346,-0.7338,0,0,0,0,0,0,-0.7666,-0.7649,-0.7657,-0.7608,-0.759,-0.7573,-0.7547,-0.7555,-0.753,-0.7534,-0.7534,-0.7529,-0.7481,-0.7471,-0.7497,-0.7414,-0.7441,-0.7435,-0.7422,-0.7414,-0.7407,-0.7409,-0.7522,0,0,0,0,0,-0.7655,-0.7627,-0.7614,-0.7572,-0.7563,-0.7556,-0.754,-0.7542,-0.7523,-0.7515,-0.7502,-0.7482,-0.7453,-0.7433,-0.7406,-0.7351,-0.7345,-0.7326,-0.7319,-0.7314,-0.7307,-0.7275,-0.7266,-0.7367,-0.7367,-0.7367,0,0,-0.763,-0.7618,-0.76,-0.7566,-0.7552,-0.7522,-0.7549,-0.7517,-0.7493,-0.7509,-0.7465,-0.7456,-0.7433,-0.7382,-0.7359,-0.7372,-0.7278,-0.7308,-0.7304,-0.7301,-0.727,-0.726,-0.7251,-0.7364,-0.7365,-0.7365,0,0,-0.757,-0.7559,-0.7522,-0.7508,-0.7487,-0.7483,-0.7474,-0.7455,-0.7449,-0.7406,-0.7416,-0.7389,-0.7339,-0.7322,-0.7306,-0.7239,-0.7247,-0.723,-0.7194,-0.7163,-0.7155,-0.7147,-0.7121,-0.7111,-0.7225,-0.7224,-0.7224,0,-0.7542,-0.7498,-0.7501,-0.7467,-0.7451,-0.7465,-0.7426,-0.7412,-0.7383,-0.737,-0.7386,-0.7323,-0.7309,-0.7253,-0.7236,-0.7225,-0.7212,-0.7231,-0.7156,-0.7149,-0.7142,-0.7116,-0.7106,-0.7222,-0.7223,-0.7223,-0.7223,0,-0.7463,-0.7432,-0.7404,-0.7376,-0.7357,-0.7321,-0.7317,-0.7297,-0.7301,-0.7295,-0.7249,-0.7233,-0.7201,-0.7189,-0.7192,-0.7133,-0.7141,-0.7157,-0.7183,-0.713,-0.7106,-0.7096,-0.7219,-0.722,-0.7221,-0.7221,0,0,-0.7382,-0.7357,-0.7346,-0.7333,-0.7311,-0.7286,-0.725,-0.722,-0.7202,-0.7181,-0.7149,-0.7107,-0.712,-0.7103,-0.7104,-0.7077,-0.7021,-0.7095,-0.7095,-0.7079,-0.6952,-0.6938,-0.6927,-0.7028,-0.7026,-0.7025,-0.6953,0,-0.7318,-0.7255,-0.7257,-0.7198,-0.7168,-0.7181,-0.7149,-0.7131,-0.7125,-0.7097,-0.709,-0.7059,-0.708,-0.707,-0.7044,-0.7034,-0.6995,-0.7039,-0.6995,-0.6994,-0.6997,-0.6915,-0.6901,-0.6833,-0.6944,-0.6942,-0.6941,0,-0.7234,-0.7211,-0.7148,-0.7129,-0.7117,-0.7088,-0.706,-0.7035,-0.7014,-0.7011,-0.6992,-0.6997,-0.6959,-0.6988,-0.6934,-0.6964,-0.6946,-0.6938,-0.6936,-0.6929,-0.6962,-0.6902,-0.6812,-0.68,-0.6926,-0.6928,-0.6929,0,-0.7177,-0.7131,-0.7087,-0.7076,-0.7053,-0.7032,-0.7022,-0.7003,-0.6985,-0.696,-0.6947,-0.6919,-0.6902,-0.6879,-0.6875,-0.6898,-0.6819,-0.685,-0.6813,-0.6813,-0.6793,-0.6794,-0.6695,-0.6788,-0.6788,-0.6788,-0.6788,0,-0.7103,-0.7064,-0.7061,-0.7034,-0.699,-0.6992,-0.6948,-0.6939,-0.6922,-0.6892,-0.6903,-0.6874,-0.6874,-0.6844,-0.6841,-0.6795,-0.6788,-0.6782,-0.6782,-0.6779,-0.678,-0.6765,-0.6769,-0.6785,-0.6786,-0.6786,-0.6787,0,-0.7032,-0.7029,-0.6981,-0.6964,-0.6959,-0.6927,-0.6911,-0.6884,-0.6879,-0.6841,-0.6832,-0.6823,-0.6788,-0.6784,-0.6744,-0.6742,-0.6685,-0.6691,-0.6691,-0.6691,-0.6654,-0.6656,-0.654,-0.6524,-0.663,-0.6629,-0.6628,0,-0.6983,-0.6953,-0.6932,-0.6913,-0.6902,-0.6871,-0.6852,-0.6854,-0.6833,-0.6807,-0.6783,-0.675,-0.6723,-0.6666,-0.6655,-0.6624,-0.6627,-0.6589,-0.6622,-0.662,-0.6622,-0.6623,-0.6618,-0.6581,-0.658,-0.6579,-0.6578,0,-0.6896,-0.6896,-0.6869,-0.684,-0.6818,-0.6795,-0.6774,-0.6758,-0.6757,-0.6733,-0.6698,-0.6677,-0.6636,-0.6601,-0.6571,-0.6558,-0.6566,-0.6568,-0.6557,-0.6553,-0.6554,-0.655,-0.667,-0.657,-0.6571,-0.6571,-0.6572,-0.6572,-0.6832,-0.6805,-0.6786,-0.6754,-0.6739,-0.6719,-0.6692,-0.6684,-0.6655,-0.6622,-0.6625,-0.6585,-0.6564,-0.6524,-0.6509,-0.6477,-0.649,-0.6475,-0.6471,-0.6466,-0.6461,-0.6562,-0.6472,-0.6473,-0.6473,-0.6473,-0.6473,0,-0.6742,-0.6731,-0.6702,-0.6673,-0.6647,-0.666,-0.6637,-0.6615,-0.658,-0.6561,-0.6534,-0.6493,-0.646,-0.6447,-0.6414,-0.6391,-0.6393,-0.6381,-0.6381,-0.6378,-0.6453,-0.6464,-0.6379,-0.638,-0.638,-0.638,-0.638,-0.638,-0.6692,-0.6647,-0.6644,-0.659,-0.6579,-0.6541,-0.6526,-0.6507,-0.6491,-0.6445,-0.6417,-0.641,-0.6392,-0.6358,-0.6327,-0.6324,-0.631,-0.6295,-0.6293,-0.6363,-0.6373,-0.6382,-0.6392,-0.6293,-0.6293,-0.622,-0.6219,-0.6219]},{"header":{"parameterUnit":"m.s-1","parameterCategory":1,"la1":30.2991,"la2":30.254,"lo1":-89.0895,"lo2":-89.0444,"dy":0.0017,"dx":0.0017,"nx":28,"ny":28,"refTime":"2025-03-12T09:00:00:Z","depth":0,"parameterNumber":3,"parameterNumberName":"V-component_of_WINDS"},"data":[0,0,0,0,0,0,0,0,0,0,0,0,0,0,0,0,0,0,0,0,0,0,0,0,0,0,0,0,0,0,0,0,0,0,0,0,0,0,0,0,0,0,0,0,0,0,0,0,0,0,0,0,0,0,0,0,0,0,3.352,3.3522,0,3.3749,3.3751,3.3754,3.379,3.3788,3.3786,3.3784,3.4017,3.4025,3.4033,0,0,0,0,0,0,0,0,0,0,0,0,0,3.3113,3.312,3.352,3.3523,3.3525,3.3748,3.3751,3.3754,3.3791,3.3788,3.3786,3.3783,3.4014,3.4024,3.4033,0,0,0,0,0,0,0,0,0,0,0,0,0,3.331,3.3123,3.3519,3.357,3.3577,3.3748,3.3751,3.3755,3.3791,3.3788,3.3785,3.3782,3.4011,3.4023,3.4035,3.417,0,0,3.4072,3.4077,0,0,0,0,0,0,0,0,3.3299,3.3325,3.356,3.3567,3.3575,3.3738,3.3693,3.3894,3.3792,3.371,3.3784,3.3781,3.3926,3.3945,3.3995,3.4181,3.4191,3.4073,3.408,3.4085,3.4089,0,0,0,0,0,0,0,3.3286,3.3316,3.361,3.3563,3.3573,3.3582,3.3606,3.3732,3.3832,3.3717,3.372,3.3747,3.393,3.3983,3.4,3.4194,3.4073,3.4083,3.4091,3.4095,3.4504,3.4507,0,0,0,0,0,0,3.3263,3.3304,3.3603,3.3617,3.3427,3.3591,3.3619,3.3689,3.3831,3.385,3.3749,3.3747,3.3964,3.3986,3.4009,3.4178,3.4085,3.4097,3.4104,3.45,3.4505,3.4509,0,0,0,0,0,0,3.3254,3.3289,3.3594,3.3462,3.3501,3.3602,3.3679,3.3695,3.3748,3.3855,3.3873,3.3785,3.3962,3.3992,3.413,3.4187,3.4102,3.4113,3.4496,3.4502,3.4507,3.4517,0,0,0,0,0,0,3.3242,3.3286,3.3338,3.3463,3.3508,3.3712,3.3683,3.3701,3.3769,3.3769,3.3894,3.3911,3.3962,3.4112,3.4142,3.4202,3.4123,3.4492,3.4499,3.4505,3.4512,3.4522,3.4531,0,0,0,0,0,3.3227,3.3331,3.3341,3.3377,3.3576,3.3715,3.3741,3.3798,3.3773,3.3827,3.3896,3.3907,3.4175,3.4126,3.416,3.4224,3.4488,3.4497,3.4505,3.4508,3.452,3.453,0,0,0,0,0,0,3.321,3.3348,3.3361,3.3508,3.3599,3.3721,3.379,3.3808,3.3908,3.3905,3.397,3.3998,3.4133,3.4192,3.4135,3.4363,3.433,3.4345,3.432,3.4333,3.4342,3.4326,3.4133,0,0,0,0,0,3.3224,3.3325,3.344,3.3559,3.3604,3.3689,3.3752,3.3788,3.3885,3.3924,3.4003,3.4097,3.4202,3.427,3.4373,3.452,3.4548,3.4581,3.459,3.4597,3.461,3.4694,3.4711,3.4535,3.4535,3.4535,0,0,3.3252,3.334,3.34,3.3558,3.3633,3.3737,3.3722,3.3832,3.391,3.3941,3.4077,3.4138,3.4247,3.4391,3.4458,3.4444,3.4665,3.4607,3.4612,3.4622,3.4704,3.4721,3.4736,3.4541,3.454,3.4539,0,0,3.3359,3.3434,3.3543,3.3619,3.3733,3.3789,3.3815,3.3934,3.3977,3.4114,3.414,3.4233,3.4412,3.449,3.4552,3.4688,3.4703,3.4719,3.4769,3.485,3.4864,3.4876,3.4927,3.4944,3.4732,3.4732,3.4732,0,3.338,3.3538,3.3596,3.3707,3.3776,3.3808,3.3919,3.3989,3.4131,3.4178,3.416,3.4388,3.4463,3.4626,3.4659,3.4708,3.4741,3.4707,3.4857,3.487,3.4883,3.4932,3.4951,3.4733,3.4733,3.4733,3.4733,0,3.356,3.3669,3.3743,3.3881,3.3958,3.4067,3.4142,3.4213,3.4241,3.4299,3.4439,3.4531,3.4654,3.4694,3.4723,3.4862,3.485,3.4844,3.4812,3.49,3.4948,3.4967,3.4735,3.4735,3.4734,3.4734,0,0,3.3664,3.3832,3.3858,3.3922,3.4051,3.4136,3.4247,3.4368,3.4429,3.4524,3.4621,3.4772,3.4767,3.4838,3.4876,3.4946,3.5051,3.4932,3.4935,3.4953,3.5212,3.5219,3.5239,3.506,3.5064,3.5067,3.5204,0,3.3787,3.3988,3.4043,3.4213,3.4316,3.4348,3.4445,3.4534,3.4591,3.4686,3.4747,3.4855,3.4839,3.4883,3.4954,3.5023,3.5104,3.5013,3.5151,3.5155,3.5126,3.5264,3.5271,3.5396,3.5223,3.5226,3.5228,0,3.3959,3.406,3.424,3.4357,3.4403,3.4489,3.4605,3.4695,3.4797,3.4833,3.4912,3.4944,3.5061,3.502,3.5183,3.512,3.518,3.5222,3.5228,3.5245,3.5199,3.5288,3.5437,3.5457,3.5257,3.5255,3.5253,0,3.402,3.4201,3.4333,3.4386,3.4525,3.4585,3.4645,3.4744,3.4814,3.4914,3.4961,3.5073,3.5135,3.5221,3.5282,3.5246,3.544,3.5404,3.5475,3.5473,3.5517,3.5514,3.5681,3.555,3.5549,3.5549,3.5548,0,3.4154,3.4264,3.4363,3.4444,3.4568,3.463,3.4751,3.4812,3.49,3.4994,3.5027,3.5115,3.5188,3.5285,3.5333,3.5462,3.5489,3.5522,3.5534,3.5521,3.5517,3.5563,3.5557,3.5554,3.5553,3.5552,3.5551,0,3.4244,3.4315,3.4461,3.4581,3.4613,3.47,3.4802,3.4883,3.4939,3.5058,3.5089,3.5179,3.5296,3.5364,3.551,3.5542,3.5686,3.5692,3.5652,3.5658,3.5726,3.572,3.5931,3.5963,3.5807,3.5808,3.581,0,3.4327,3.4413,3.4542,3.4608,3.4669,3.4774,3.4846,3.491,3.4983,3.5106,3.5171,3.529,3.5388,3.5572,3.565,3.5763,3.5774,3.584,3.5791,3.5776,3.5779,3.5774,3.5784,3.5849,3.5851,3.5852,3.5853,0,3.4467,3.4498,3.46,3.4715,3.48,3.4893,3.4986,3.5037,3.5116,3.5197,3.5317,3.5393,3.5543,3.5661,3.578,3.5841,3.5862,3.5867,3.589,3.5879,3.5854,3.5872,3.5678,3.5863,3.5862,3.5861,3.586,3.586,3.4559,3.4637,3.4741,3.4854,3.493,3.5016,3.5099,3.5166,3.5268,3.5396,3.5426,3.5553,3.5653,3.5815,3.5879,3.5979,3.5968,3.6,3.6009,3.6017,3.6021,3.5835,3.6,3.6,3.6,3.6,3.6,0,3.4703,3.4771,3.4875,3.5004,3.5093,3.5103,3.5206,3.5281,3.5392,3.5484,3.558,3.5719,3.5833,3.592,3.6037,3.61,3.6112,3.6129,3.6127,3.6141,3.6022,3.5992,3.6117,3.6117,3.6117,3.6117,3.6117,3.6117,3.4789,3.4923,3.4966,3.5138,3.5206,3.5331,3.5389,3.5469,3.5543,3.5697,3.5792,3.5848,3.5938,3.6062,3.6168,3.619,3.6233,3.6249,3.6273,3.6161,3.6149,3.6137,3.6109,3.6257,3.6257,3.6384,3.6385,3.6386]}]]